Terug naar catalogus

KUIPER-00412

ActiefCommunicatieLEO
NORAD 68927·PAYLOAD·🇺🇸 United States

Gelanceerd Apr 30, 2026 vanaf Guiana Space Centre

Loading…

Volgende Passages (komende 24 uur)

TLE

VersSource: CelesTrak SupGP

Epoch: Sep 14, 2026, 22:34 UTC

1 68927C 26098J   26257.94033565  .00003378  00000+0  44220-3 0  2576
2 68927  51.9039  11.2917 0000581 116.9403 126.9256 14.79931101    18

Volg KUIPER-00412 in realtime met AllMySat

Download on the App Store